Terminal Aerodrome Forecast
Issued by NWS Boston, MA

Home | Current Version | Previous Version | Text Only | Print | Product List | Glossary On
Versions: 1 2 3 4 5 6 7 8 9 10 11 12 13 14 15 16 17 18 19 20 21 22 23 24 25 26 27 28 29 30 31 32 33 34 35 36 37 38 39 40 41 42
000
FTUS41 KBOX 231516 AAA
TAFPVD
TAF AMD
KPVD 231516Z 2315/2412 15004KT P6SM FEW130
     FM231700 21008KT P6SM SCT018
     FM240300 22007KT P6SM SCT003 OVC200
     FM240800 23005KT 4SM BR BKN003=

USA.gov is the U.S. government's official web portal to all federal, state and local government web resources and services.